sat.trackr.live / text

‹ back to catalog

CENTISPACE-1 GROUP 05 O*

NORAD 69636 · 2026-138J

PAYLOAD ACTIVE UNKNOWN

§ Identity

Operator
Country
PRC
Launch date
2026-06-17
Launch site
JSC
Launch vehicle
Mass (kg)
RCS (m²)

External: N2YO · Heavens-Above · Gunter

§ Orbital elements

Epoch: 2026-09-17T06:54:12.244608Z

Period
102.37 min
Inclination
55.1491°
Eccentricity
0.0006633
Mean motion
14.06624070 rev/d
Perigee alt
866.1 km
Apogee alt
875.8 km
Semi-major
7,249.1 km
B*
7.6889e-5
RAAN
301.6604°
Arg perigee
290.5163°
Mean anomaly
69.5095°
Rev number
1,302

§ Raw data

CENTISPACE-1 GROUP 05 O*1 69636U 26138J   26260.28764172 -.00000022  00000+0  76889-4 0  99992 69636  55.1491 301.6604 0006633 290.5163  69.5095 14.06624070 13021

JSON: /api/v1/satellites/69636 · /tle

For live sub-satellite position, see the globe view (requires WebGL).

§ Visibility from observer

Set your observer location to see the next 7 days of passes ≥ 10°. The values pass through the URL so the page stays shareable.

No JS? Fill the form by hand. The geolocation button needs JavaScript.